User: anonymous   Login
Location: Peebles
(55.6412°N, 3.1714°W)
Time: 15:42:17
(UTC+01:00)
Language:

FENGYUN 1C DEB - Orbit

View from above orbital plane
View from above orbital plane
View from above satellite
View from above satellite

Ground track
Ground track

The orbit data is extracted from the following two-line orbital elements,

1 36702U 99025DZY 22182.33545591  .00004139  00000-0  15123-2 0  9994
2 36702  98.4401 222.4288 0113376 166.1853 194.2477 14.29954989472349
Epoch (UTC): 01 July 2022 08:03:03
Eccentricity: 0.0113376
inclination: 98.4401°
perigee height: 710 km
apogee height: 873 km
right ascension of ascending node: 222.4288°
argument of perigee: 166.1853°
revolutions per day: 14.29954989
mean anomaly at epoch: 194.2477°
orbit number at epoch: 47234

The dashed part of the orbit path shows where the satellite is in the earth's shadow,  

DLR